STARLINK-3005, 48881

Orbit data source: Space-Track

STARLINK-3005, 48881 is a payload satellite owned by SpaceX/Seattle (US) in SSO that was launched on Wed, 30 Jun 2021 UTC via an FALCON 9 launch vehicle from the Air Force Eastern Test Range (AFETR). Payload-class satellites include a variety of spacecraft equipped with specific instruments for various scientific and technological missions. These include communications satellites like Starlink; space stations such as the ISS; scientific satellites like the Hubble; Earth observation satellites from companies like Planet Labs, Umbra, and HawkEye 360; GPS; miniature CubeSats for education and research; and military/defense satellites.

Loading next visibility...
Identifier
48881, 2021-059C
Orbit
SSO
Country
Flag of USUS
Related business
Manufacturer
SpaceX/Seattle
Mission
Operational Commercial Communications
Bus & Motor
STARLINK, Unknown motor
Mass
260 kg wet, ~248 kg dry
Launch date (UTC)
2021-06-30 (5 years ago)
Launch vehicle
FALCON 9
Launch site
Air Force Eastern Test Range (AFETR)
Object type
Payload
Rocket body
Debris
Shape & HBR
Box + 1 Pan, 10.1 m
Radar Cross Section
13.562 m², Large (>1 m²)

Expand to show TLE details & history
Last TLE update: 9 hours ago

TLE from 9 hours ago
0 STARLINK-3005
1 48881U 21059C   26095.27651147 -.00000604  00000-0 -42405-4 0  9992
2 48881  97.6587 221.4726 0002429  87.8189 272.3313 15.01259066262797
Epoch: 2026-04-05T06:38Z
TLE epoch observation values (Epoch: 2026-04-05T06:38:10.591Z)
Latitude
-0.00009°
Longitude
-71.65577°
Altitude
566.002 km
Speed
7.578 km/s
True Right ascension
14h 45m 53s
True Declination
0° 00' 00"
Sunlit
Object was in full shadow at epoch
Visualization orbit readout
Latitude
Unknown
Longitude
Unknown
Altitude
Unknown
Speed
Unknown
Apparent Right ascension
Unknown
Apparent Declination
Unknown
Sunlit
N/A
Visualization observer readout
Local Sidereal Time
21:59:54
Azimuth
Unknown
Elevation
Unknown
Doppler factor
Unknown
Orbital elements
Apogee altitude
561.7 km
Perigee altitude
558.329 km
Semi-major axis
6,938.152 km
Eccentricity
0.00024
Inclination
97.6587°
RAAN
221.4726°
Arg. of periapsis
87.8189°
True anomaly
272.30349°
Mean anomaly
272.3313°
Eccentric anomaly
272.31739°
Mean motion
3.75558 °/min
Orbital period
95.86 mins
BSTAR
-0.000042405
Loading maneuver chart data...
Computing Atmospheric mass density...

Documentation

Showing up to 5 results
|